This is the latest recevied weather packets stored in our database for station/object W1CAT. If no packets are shown the sender has not sent any weather packets the latest 10 day(s).
| Time | Temp. | Humidity | Pressure | Rain* | Wind** | Luminosity | Snow |
|---|---|---|---|---|---|---|---|
| 1777834029 | 17.78° C | 21% | - | 0 mm | - | - | - |
| 1777833726 | 17.22° C | 22% | - | 0 mm | - | - | - |
| 1777833422 | 17.22° C | 22% | - | 0 mm | - | - | - |
| 1777833120 | 17.22° C | 21% | - | 0 mm | - | - | - |
| 1777832818 | 17.78° C | 23% | - | 0 mm | - | - | - |
| 1777832516 | 17.78° C | 21% | - | 0 mm | - | - | - |
| 1777832212 | 17.22° C | 23% | - | 0 mm | - | - | - |
| 1777831909 | 16.67° C | 24% | - | 0 mm | - | - | - |
| 1777831606 | 16.67° C | 26% | - | 0 mm | - | - | - |
| 1777831304 | 17.22° C | 26% | - | 0 mm | - | - | - |
| 1777831001 | 16.67° C | 27% | - | 0 mm | - | - | - |
| 1777830698 | 17.22° C | 24% | - | 0 mm | - | - | - |
| 1777830394 | 17.22° C | 24% | - | 0 mm | - | - | - |
| 1777830091 | 17.22° C | 25% | - | 0 mm | - | - | - |
| 1777829781 | 16.67° C | 26% | - | 0 mm | - | - | - |
| 1777829478 | 17.78° C | 26% | - | 0 mm | - | - | - |
| 1777829175 | 17.78° C | 25% | - | 0 mm | - | - | - |
| 1777828872 | 18.33° C | 27% | - | 0 mm | - | - | - |
| 1777828569 | 17.22° C | 26% | - | 0 mm | - | - | - |
| 1777828266 | 17.78° C | 26% | - | 0 mm | - | - | - |
| 1777827963 | 17.22° C | 28% | - | 0 mm | - | - | - |
| 1777827659 | 17.78° C | 27% | - | 0 mm | - | - | - |
| 1777827356 | 17.22° C | 28% | - | 0 mm | - | - | - |
| 1777827053 | 16.11° C | 30% | - | 0 mm | - | - | - |
| 1777826749 | 15° C | 32% | - | 0 mm | - | - | - |
* Rain latest hour (hover to see other rain measurements)
** Current wind speed in m/s (hover to see current wind gust speed)